Probability
8 18 26 19 9 4 1 1 1 1 1 1 0 0 0 0 0 0 0 0 0 0 0 0 0 0 0 0 0 0 0 0 0 0 0 0 0 0 0 0 0 0 0
19 30 36 29 18 9 4 4 5 5 4 2 1 1 0 0 0 0 0 0 0 0 0 0 0 0 0 0 0 0 0 0 0 0 0 0 0 0 0 0 0 0 0
35 42 45 44 38 25 17 18 22 21 16 10 6 3 1 0 0 0 0 0 0 0 0 0 0 0 0 0 0 0 0 0 0 0 0 0 0 0 0 0 0 0 0
42 49 55 60 60 50 40 41 46 45 37 28 18 10 5 1 0 0 0 0 0 0 0 0 0 0 0 0 0 0 0 0 0 0 0 0 0 0 0 0 0 0 0
45 54 66 72 73 67 60 57 59 59 53 46 36 24 12 4 0 0 0 0 0 0 0 0 0 0 0 0 0 0 0 0 0 0 0 0 0 0 0 0 0 0 0
46 55 69 78 77 72 66 62 62 62 60 56 47 34 21 10 3 2 1 0 0 0 0 0 0 0 0 0 0 0 0 0 0 0 0 0 0 0 0 0 0 0 0
49 53 65 75 74 68 64 63 64 65 64 60 51 38 25 15 9 5 2 1 0 0 0 0 0 0 0 0 0 0 0 0 0 0 0 0 0 0 0 1 1 1 1
51 54 62 66 64 61 62 63 66 67 67 63 52 37 25 17 11 7 4 2 1 0 0 0 0 0 0 0 0 0 0 0 0 0 0 0 0 0 0 1 2 2 2
46 52 57 54 52 52 54 58 63 66 67 64 52 36 23 14 8 5 5 4 2 1 0 1 1 0 0 0 0 0 0 0 0 0 0 0 0 0 0 1 2 3 4
42 48 52 50 46 42 42 47 54 59 61 58 49 35 20 9 4 2 4 5 4 1 0 1 1 1 0 0 0 0 0 0 0 0 0 1 1 0 0 0 1 3 4
48 51 53 53 48 39 37 40 43 45 45 40 35 27 15 5 1 2 5 7 5 1 1 1 2 1 0 0 0 0 0 0 0 0 1 3 3 1 0 0 0 1 3
60 58 57 56 54 47 44 46 39 33 29 23 20 18 12 7 5 4 8 9 5 2 2 2 2 1 0 0 0 0 0 0 0 0 1 3 3 1 0 0 1 1 2
62 59 56 57 57 55 55 55 46 37 32 25 23 23 20 19 13 8 7 7 4 2 1 2 2 1 1 1 0 0 0 0 0 0 1 1 1 0 0 1 2 4 5
54 52 51 54 58 62 63 62 57 52 46 41 43 41 35 29 22 14 10 7 4 1 1 2 2 2 1 1 0 0 0 0 0 0 0 1 1 1 1 2 3 6 7
47 46 48 54 62 69 72 70 68 66 60 56 56 53 43 34 28 24 19 13 6 3 3 3 3 2 1 1 0 0 0 0 1 0 0 1 2 3 4 5 5 6 8
55 54 54 58 65 73 76 75 73 73 68 62 59 55 45 37 34 32 25 17 9 7 8 7 5 3 1 1 1 0 0 0 0 0 1 3 5 6 7 8 8 7 6
65 64 61 57 59 67 73 72 71 71 68 64 61 56 48 41 42 39 30 21 16 16 18 16 12 8 5 4 3 3 2 3 3 3 4 6 7 8 8 9 9 8 7
69 68 63 54 51 58 66 68 68 68 68 66 63 57 51 49 49 48 40 31 27 29 28 25 20 16 13 9 8 7 7 7 7 7 8 8 9 9 8 8 8 8 9
67 68 64 56 51 56 63 66 67 69 70 66 61 57 55 54 53 51 47 39 36 36 32 28 27 25 19 13 9 9 9 9 9 9 9 10 9 8 7 6 5 6 7
62 63 60 55 54 58 63 65 64 66 67 62 57 56 55 53 52 53 50 44 41 39 35 32 32 29 21 14 9 9 9 8 8 9 10 10 8 5 4 3 2 3 3
58 56 51 50 52 56 59 60 59 59 57 52 49 48 48 47 49 50 49 47 45 43 40 35 32 27 20 16 15 13 11 9 9 9 9 7 5 3 2 1 1 1 1
57 53 49 48 51 53 52 53 53 50 45 40 37 36 36 38 40 40 40 41 41 39 36 31 28 25 21 18 19 18 13 10 8 5 4 3 2 2 2 1 0 0 0
53 52 51 51 52 53 51 50 48 43 37 32 26 23 22 24 25 26 28 30 29 26 24 23 23 23 21 18 17 16 13 9 6 3 1 1 1 2 2 1 0 0 0
47 50 52 53 53 52 52 50 46 39 32 25 18 13 13 14 14 13 15 17 17 15 14 14 15 16 17 16 13 12 10 7 5 4 1 0 0 1 1 0 0 0 0
44 46 50 53 54 52 51 49 46 37 26 18 13 9 9 9 8 6 6 8 9 9 8 8 8 9 11 11 9 8 7 5 4 3 2 1 0 0 0 0 0 0 0
43 43 46 51 53 53 51 48 44 34 21 14 11 9 9 9 7 5 4 6 6 6 6 6 6 7 8 8 6 5 6 5 2 2 2 1 0 0 0 0 0 0 0
Wind_Speed
12 16 17 12 11 12 13 15 15 15 15 16 16 15 15 14 13 12 11 11 10 9 10 10 10 11 11 12 13 13 13 13 13 13 13 12 12 11 11 12 11 11 13
15 18 17 13 12 13 14 15 15 15 15 16 16 15 15 14 13 12 11 10 10 9 10 10 10 11 12 12 12 13 13 13 12 12 13 12 11 10 10 8 3 11 12
16 18 18 14 13 14 14 15 16 15 16 16 15 15 14 13 12 12 11 10 10 10 10 10 10 11 11 11 11 11 12 11 11 11 11 10 11 10 9 7 9 12 11
17 18 18 16 14 15 15 16 16 17 17 16 15 15 14 13 12 11 11 10 10 10 10 10 10 10 10 10 10 10 10 10 9 10 8 7 9 11 9 8 9 10 10
17 18 18 17 15 15 16 16 17 17 17 16 15 15 14 13 12 11 11 10 10 10 9 9 9 9 9 9 9 8 8 8 8 10 4 5 7 11 9 9 9 9 9
18 18 19 17 16 15 16 16 17 17 16 16 15 15 13 13 12 11 11 11 10 9 9 9 9 8 8 8 7 7 7 7 9 6 5 4 7 11 10 10 9 9 8
17 17 20 16 16 16 16 16 16 16 15 15 15 14 13 12 11 11 11 11 10 9 9 9 8 7 7 6 6 5 5 5 8 3 4 4 6 11 10 10 9 9 9
17 18 19 18 18 17 16 16 15 15 15 14 14 14 13 12 11 11 10 10 10 9 9 8 8 7 6 5 4 3 3 6 7 3 4 3 9 10 10 9 9 9 10
16 17 18 19 18 17 15 15 14 14 13 13 13 13 13 12 11 11 10 10 9 9 9 8 7 6 5 4 3 2 2 5 8 3 4 2 9 9 10 10 10 10 10
15 16 17 17 17 17 16 16 15 14 13 13 14 14 13 12 11 10 11 9 9 8 8 7 7 6 5 4 3 2 3 7 9 4 3 5 9 9 10 10 10 11 11
15 15 16 17 16 16 16 15 15 14 13 13 13 13 13 12 12 11 10 10 9 8 8 7 6 6 5 6 4 4 6 8 5 3 2 7 7 9 10 10 11 11 12
17 17 16 16 16 16 13 13 11 12 12 12 12 13 11 8 7 7 13 9 8 8 8 7 6 8 9 8 9 9 7 7 5 3 2 7 6 9 10 10 11 12 12
17 16 16 15 15 14 11 11 8 8 9 11 12 12 8 7 7 6 7 9 9 10 9 9 9 8 7 4 4 5 5 5 4 3 3 7 5 8 10 11 12 12 12
16 17 17 16 14 14 12 10 9 8 8 9 10 11 9 6 6 6 5 6 7 6 5 5 5 5 4 4 6 5 5 4 3 2 2 6 4 6 9 10 11 12 12
16 17 17 16 15 12 10 9 10 9 9 8 8 10 9 7 7 6 5 4 5 4 5 5 4 3 4 5 4 4 4 4 4 4 1 6 3 4 6 8 9 11 11
15 16 15 15 15 13 11 10 9 8 7 8 8 10 10 7 6 6 6 5 4 4 3 3 3 4 4 2 2 2 4 3 2 3 3 2 4 1 2 3 5 7 8
14 14 14 15 14 14 13 12 9 8 8 8 7 9 9 9 7 6 6 5 5 4 4 4 4 3 3 3 2 2 1 2 2 2 3 3 2 5 6 5 4 3 3
11 12 13 12 13 13 11 10 7 7 7 6 5 6 8 8 7 6 5 5 4 4 3 3 3 3 2 2 1 0 1 1 2 3 3 4 4 4 6 9 9 8 6
8 10 12 12 12 12 10 8 7 5 5 4 4 4 5 6 6 6 4 3 4 3 3 3 3 2 2 1 1 1 2 2 3 4 5 5 6 5 5 8 11 12 12
6 7 8 9 9 9 7 6 5 4 4 3 3 3 4 4 5 4 3 4 3 3 3 2 2 2 1 1 1 2 2 3 3 4 4 5 5 6 6 6 6 8 14
5 6 7 9 9 7 6 6 6 5 4 3 3 3 3 2 3 3 2 2 2 2 2 3 3 3 2 2 2 2 2 4 4 4 4 4 6 6 7 7 6 5 6
4 5 6 7 9 9 7 6 5 5 4 3 3 4 3 3 3 3 3 2 2 2 3 3 3 2 2 1 2 2 3 3 3 5 4 5 6 5 7 8 8 7 6
2 3 4 5 7 9 8 6 6 5 4 3 4 4 5 5 5 4 5 4 3 2 3 2 2 3 3 1 1 2 2 2 4 4 5 6 5 5 6 6 8 7 7
2 1 3 4 5 6 8 8 9 7 6 5 5 6 7 7 7 6 6 6 5 4 4 3 2 0 2 2 1 1 2 2 1 3 4 5 6 6 6 5 6 7 6
4 3 4 4 5 6 7 10 9 8 7 7 8 10 8 8 8 8 7 7 6 6 6 5 5 4 2 2 2 2 2 2 2 0 3 3 4 4 4 5 4 4 4
6 5 5 5 6 6 7 8 10 11 11 11 10 9 8 6 7 9 8 8 7 7 7 7 7 8 7 7 5 4 2 2 2 1 2 2 3 3 3 3 3 3 3
Wind_Direction
159 145 138 144 141 141 146 148 148 146 143 142 143 142 141 140 138 136 133 128 123 117 112 110 110 111 115 117 117 119 120 121 123 125 126 127 129 131 129 135 151 122 122
153 145 141 143 141 141 145 148 146 145 143 142 143 143 142 143 141 139 135 131 127 122 117 114 113 114 117 120 121 124 126 128 131 133 136 136 134 134 137 151 128 115 134
152 146 149 144 142 142 144 145 144 143 143 143 144 144 143 144 143 141 138 135 131 126 123 120 120 120 121 123 125 128 131 135 139 145 163 153 136 142 145 142 112 130 139
153 152 156 144 145 144 145 144 144 145 145 144 145 145 145 146 145 143 140 138 133 129 127 125 124 124 126 129 130 132 136 140 148 171 188 141 142 144 155 148 141 146 146
154 156 147 150 148 146 147 147 146 147 147 147 147 147 147 147 146 144 143 140 136 133 131 129 127 125 127 129 131 134 138 143 163 214 156 136 135 146 161 161 161 157 155
157 155 149 156 152 150 150 151 150 149 150 150 150 149 149 149 148 146 145 142 140 138 136 133 130 128 129 131 133 136 142 158 202 195 142 166 146 154 170 173 172 169 169
158 155 152 157 154 154 154 154 153 152 152 152 152 151 151 150 150 149 148 146 144 141 138 135 133 131 132 134 136 143 158 196 246 167 169 188 135 152 179 184 183 181 182
158 155 150 158 159 159 159 158 156 155 155 154 153 153 152 152 151 151 149 149 148 145 143 141 139 138 137 137 142 152 181 245 234 192 201 187 123 165 187 191 193 192 192
161 156 156 163 164 164 162 160 158 156 157 155 154 155 155 155 156 155 152 151 150 148 148 148 149 149 148 148 153 171 219 262 269 200 208 179 137 181 198 199 199 201 202
164 161 161 166 166 169 169 166 163 160 160 159 158 159 158 158 161 161 163 152 154 155 157 158 161 163 162 164 171 200 233 249 250 219 214 140 151 195 208 207 206 207 209
169 166 167 168 169 173 171 165 170 167 164 165 166 164 171 177 170 174 161 149 162 163 165 166 171 174 184 184 193 216 238 246 236 250 244 115 168 208 217 213 212 213 215
174 174 172 173 170 175 168 165 177 179 172 188 175 174 190 178 178 173 131 159 169 171 174 176 182 194 220 202 184 204 235 242 263 233 156 131 190 220 226 221 218 220 221
176 177 175 176 175 175 170 169 179 185 176 194 182 182 188 175 178 177 164 170 180 186 192 173 197 213 216 224 239 223 249 269 265 259 132 141 201 228 231 227 224 224 226
177 183 178 177 177 181 177 176 180 188 182 191 179 190 183 188 189 184 191 183 184 192 194 200 211 204 226 227 239 251 247 250 266 281 106 136 207 239 239 232 229 228 227
182 185 181 182 178 182 183 187 186 192 186 190 183 192 194 190 194 184 191 194 206 188 186 212 216 198 222 224 240 246 260 269 280 288 154 135 185 249 252 244 239 234 231
186 185 181 184 180 186 188 192 191 194 191 193 190 190 199 202 191 191 191 192 207 206 212 211 209 210 224 234 240 255 269 275 287 297 307 124 132 114 303 290 273 251 239
185 184 183 184 185 189 193 195 194 198 196 200 191 191 199 206 191 196 200 196 204 206 202 212 211 216 212 207 209 233 277 318 336 340 333 344 56 86 63 38 16 333 273
184 182 184 185 188 191 197 196 197 202 195 199 194 195 203 209 200 204 207 203 200 207 206 205 215 208 212 216 203 30 34 47 30 22 20 30 22 34 61 57 46 41 35
186 187 184 188 189 191 193 191 194 196 196 191 186 196 204 209 208 213 214 203 201 201 205 219 196 207 196 200 154 102 64 52 48 47 51 49 50 46 48 65 59 53 49
178 183 187 187 188 191 188 187 180 177 177 172 174 176 184 198 202 206 208 200 202 196 195 199 179 171 183 179 144 85 69 72 66 60 59 63 57 55 53 52 58 61 59
161 171 183 183 177 177 182 188 180 177 166 155 149 141 153 172 175 178 193 171 189 181 176 178 178 168 177 176 170 140 103 83 73 63 55 58 62 60 61 56 52 49 62
158 172 176 180 171 176 180 182 177 159 146 135 118 97 91 114 128 147 148 140 131 137 137 155 185 192 177 220 237 202 185 156 91 59 60 64 61 61 62 59 57 52 48
123 154 162 166 171 176 169 153 142 131 130 133 110 87 70 77 84 97 104 102 100 125 125 131 178 193 179 156 314 274 244 200 133 95 65 62 59 58 60 60 59 54 53
56 98 132 139 156 163 157 155 151 154 153 139 118 100 84 75 76 80 88 95 97 91 96 98 81 126 179 167 136 32 19 12 197 142 110 79 63 54 53 52 54 53 47
54 65 87 107 130 148 157 155 152 149 135 123 115 104 90 78 74 76 78 81 84 82 81 79 79 70 76 88 101 104 90 72 29 135 130 114 88 63 57 57 55 52 46
53 61 75 90 101 121 137 144 145 139 131 122 111 106 96 87 79 76 79 81 81 81 80 79 81 79 72 68 64 58 61 61 63 69 109 129 116 91 68 60 54 48 43